Погода Мыс Терпения

Погода Мыс Терпения : погода сейчас, прогноз погоды и архив. Всё, что Вы хотите узнать о погоде Мыс Терпения!

Поиск расширенной информации на нашем сайте:

Другие новости

Новости СМИ2

Главная страница сайта

Новости сайта

03.07.2017

Напоминаем, что на нашем специализированном сайте Метеоцентр.Азия вы можете получить высокодетализированные автоматические прогнозы погоды по пунктам России, СНГ и мира в авиационном формате (включающие направление и скорость ветра, видимость, явления погоды, количество и форму облачности, нижнюю и верхнюю границу облачности).

Рекомендуем: Станозолол Где купить Станозолол заказать Stanos пропионат пкт побочные лучший как принимать Купить

Погода Мыс Терпения - сегодня

Время (UTC), дата Ветер
(°,м/с) 
Видим.   Явления Облачность Т
(°С)
Тd
(°С)
f(%) Тe
(°С)
Pmin
(гПа)
dP
(гПа)
Po
(мм)
O2
(г/м3)
Тmin Tmax R s Состояние
почвы
18 16.02.18 320 (СЗ) 5-6{09}  20000 м    ясно 
-16.8 -19.9 77 -23  1006.2  -0.8  754  325           
21 16.02.18 330 (СЗ) 4-5{08}  20000 м    ясно 
-17.8 -20.9 77 -23  1006.7  0.5  754  327  -17.9      12  неравномерный
сухой снег
100% 
03 17.02.18 тихо () {03}  20000 м    1/1 600 м кучево-дожд. 
[Cb cap]
-11.3 -17.5 60 -11  1007.5  0.1  755  319           
12 17.02.18 тихо () {01}  20000 м    ясно 
-13.2 -17.6 69 -13  1008.5  0.7  756  321           
15 17.02.18 090 (В) 2-2{03}  20000 м    ясно 
-13.4 -16.7 76 -16  1008.7  0.2  756  322           
18 17.02.18 340 (С) 2-3{03}  20000 м    ясно 
-17.3 -19.1 86 -20  1009.9  1.1  757  327           
21 17.02.18 330 (СЗ) 4-5{05}  20000 м    ясно 
-17.2 -19.6 82 -22  1010.7  0.8  757  327  -18.4      11  неравномерный
сухой снег
100% 
15 18.02.18 тихо () {04}  20000 м    4/4 600 м кучево-дожд. 
[Cb cap]
-14.2 -19 67 -14  1014.5  0.1  760  325           
21 18.02.18 290 (З) 5-6{08}  20000 м    3/1 600 м кучево-дожд., верхняя 
[Cb cap|Cs]
-12.8 -18.5 62 -18  1013.4  -0.5  759  323  -15.2    0.0  11  неравномерный
сухой снег
100% 
21 19.02.18 330 (СЗ) 5-5{07}  20000 м  {ливн. осадки}  4/4 600 м кучево-дожд. 
[Cb cap]
-15.6 -17.7 84 -21  1007.2  755  324  -15.7    0.2  12  неравномерный
сухой снег
100% 
00 20.02.18 330 (СЗ) 2-2{05}  20000 м  {ливн. осадки}  4/3 600 м кучево-дожд., средняя 
[Cb cap|Ac trans]
-14.6 -16.8 83 -17  1007.7  0.4  755  323  -15.9         
15 20.02.18 тихо () {01}  20000 м    ясно 
-16 -18.1 84 -16  1009.9  0.1  757  325           
18 20.02.18 тихо ()   20000 м    ясно 
-17.1 -19.4 82 -17  1010.1  0.2  757  327           
21 20.02.18 030 (СВ) 2-3{03}  20000 м    ясно 
-16.9 -19 84 -19  1010.2  0.1  757  327  -19.2      12  неравномерный
сухой снег
100% 
12 21.02.18 230 (ЮЗ) 4-6{06}  20000 м    ясно 
-14.4 -18.9 69 -19  1013.6  1.3  759  325           
15 21.02.18 210 (ЮЗ) 4-5{07}  20000 м    ясно 
-14.8 -17.7 79 -19  1013.8  0.3  760  325           
18 21.02.18 230 (ЮЗ) 5-6{06}  20000 м    ясно 
-14.6 -16.8 83 -20  1014.2  0.4  760  325           
21 21.02.18 300 (СЗ) 2-2{06}  20000 м    ясно 
-15.6 -17.5 85 -18  1015.1  0.8  761  327  -15.6      12  неравномерный
сухой снег
100% 
03 22.02.18 270 (З) 3-4{04}  20000 м    ясно 
-12.9 -19.4 58 -16  1016.5  762  324           
06 22.02.18 200 (Ю) 5-7{07}  20000 м    ясно 
-12.1 -17.5 64 -17  1016.7  0.2  762  323           
09 22.02.18 180 (Ю) 4-5{07}  20000 м    ясно 
-13.3 -17 74 -18  1018  1.2  763  325    -12.1       
15 22.02.18 тихо () {06}  20000 м    1/1 600 м 
[Sc]
-14.1 -15.6 88 -14  1019.7  0.5  764  326           
21 22.02.18 080 (В) 1-1{03}  20000 м    ясно 
-15.6 -17.8 83 -16  1021.1  1.2  765  328  -16.7      12  неравномерный
сухой снег
100% 
03 23.02.18 110 (В) 2-3{04}  20000 м    ясно 
-10.4 -15.1 68 -12  1021.6  -0.6  766  322           
06 23.02.18 100 (В) 4-6{07}  20000 м    ясно 
-10.2 -14.3 72 -14  1020.9  -0.6  765  322           
Время (UTC), дата Ветер
(°,м/с) 
Видим.   Явления Облачность Т
(°С)
Тd
(°С)
f(%) Тe
(°С)
Pmin
(гПа)
dP
(гПа)
Po
(мм)
O2
(г/м3)
Тmin Tmax R s Состояние
почвы

Для получения пояснительной информации подведите курсор к названию столбца.

ПОГОДА Мыс Терпения - архив

Всё, что Вы хотите узнать о погоде Мыс Терпения - удобно и подробно!

Выберите нужную дату (начиная с 1 января 2015* года) и нажмите кнопку "Найти".
Будут отображены архивные сводки погоды по пункту Мыс Терпения, начиная с указанной даты.


Отображать данные в формате CSV (для использования в таблицах Excel)


Внимание! Наш архив погоды предназначен исключительно для личного некоммерческого использования в познавательных целях. Если Вам необходимы официальные справки о состоянии погоды (для производственных, юридических, коммерческих и т.п. целей), обращайтесь в органы Росгидромета.

*Примечание: данная дата относится к архиву по метеостанциям СССР (Россия, СНГ, Балтия).
Архив по метеостанциям Зарубежной Европы и Азии (кроме Китая) хранится 10 дней, по другим регионам земного шара (Китай, Африка, Америка, Австралия, Океания) - 1 день.

Мыс Терпения - район местоположения метеостанции


Название, широта, долгота, высота метеостанции:
Мыс Терпения 48.6°ш. 144.7°д. 33 м над ур. моря [Российская Федерация]

Дополнительная информация

В oтличие oт бoльшинства пoгoдных сайтoв мы публикуем пoдрoбную метеoинфoрмацию в детальнoм прoфессиoнальнoм фoрмате.

Характеристики температуры и влажнoсти вoздуха измеряются на высoте 2 м в тени вдали oт зданий и деревьев.
Скoрoсть ветра измеряется на высoте 10 м (на урoвне рoста челoвека скoрoсть ветра ниже в 1.5-2 раза). Если метеoстанция нахoдится в гoрoде или в лесу, тo скoрoсть ветра занижена на 2-4 м/с пo сравнению с oткрытым местoм. Скoрoсть ветра над акватoриями крупных рек и oзёр, а также на вершинах хoлмoв на 2-5 м/с выше, чем в oбычных услoвиях.
Атмoсфернoе давление в разных тoчках местнoсти мoжет значительнo oтличаться oт давления на метеoстанции, в зависимoсти oт услoвий рельефа (при пoдъёме на 10 м давление пoнижается примернo на 1 мм рт.ст.).